Regional Weather Roundup
Issued by NWS

Home | Current Version | Previous Version | Graphics & Text | Print | Product List | Glossary On
Versions: 1 2 3 4 5 6 7 8 9 10 11 12 13 14 15 16 17 18 19 20 21 22 23 24 25 26 27 28 29 30 31 32 33 34 35 36 37 38 39 40 41 42 43 44 45 46 47 48 49 50
082
ASUS43 KOAX 241802
RWRNE

WEATHER ROUNDUP FOR NEBRASKA
NATIONAL WEATHER SERVICE OMAHA NE
1200 PM CST TUE JAN 24 2017

NOTES: SATELLITE DATA IS BEING USED TO AUGMENT CLOUD COVER ABOVE
       12000 FEET.
       "FAIR" INDICATES FEW OR NO CLOUDS BELOW 12,000 FEET WITH NO
       SIGNIFICANT WEATHER AND/OR OBSTRUCTIONS TO VISIBILITY.

  * THESE STATIONS DO NOT REPORT WEATHER SUCH AS RAIN...SNOW OR FOG.

NEZ001>004-019>022-054>056-241900-
NEBRASKA PANHANDLE

CITY           SKY/WX    TMP DP  RH WIND       PRES   REMARKS
SCOTTSBLUFF    HAZE      21  16  81 N18       29.70S VSB 3/4 WCI   6
6HR MIN TEMP:  21; 6HR MAX TEMP:  23; 6HR PCP:  0.18;

ALLIANCE       FOG       20  17  88 N24G35    29.66S VSB 1/4 WCI   3
6HR MIN TEMP:  20; 6HR MAX TEMP:  23;

CHADRON        SNOW      21  18  88 N16       29.77R VSB 1/2 WCI   7
6HR MIN TEMP:  20; 6HR MAX TEMP:  23; 6HR PCP: TRACE;

KIMBALL        CLOUDY    22  19  88 N21       29.63S WCI   7
SIDNEY         LGT SNOW  23  19  85 N29       29.61F FOG     WCI   6
6HR MIN TEMP:  22; 6HR MAX TEMP:  25; 6HR PCP: TRACE;

$$

NEZ057>060-069>072-079>082-241900-
SOUTHWEST NEBRASKA

CITY           SKY/WX    TMP DP  RH WIND       PRES   REMARKS
NORTH PLATTE   CLOUDY    32  29  88 N7        29.55R WCI  26
6HR MIN TEMP:  31; 6HR MAX TEMP:  32; 6HR PCP:  0.08;

IMPERIAL       CLOUDY    30  28  92 N17       29.54F WCI  18
6HR MIN TEMP:  30; 6HR MAX TEMP:  31; 6HR PCP: TRACE;

LEXINGTON      SNOW      31  30  94 NE14      29.49F VSB 1/2 WCI  21
MCCOOK         CLOUDY    32  31  96 N8        29.53S FOG     WCI  25
6HR MIN TEMP:  32; 6HR MAX TEMP:  32; 6HR PCP: TRACE;

OGALLALA       LGT SNOW  30  28  92 N16       29.58F VSB 3/4 WCI  18
$$

NEZ005>010-023>029-035>040-094-241900-
NORTH CENTRAL NEBRASKA

CITY           SKY/WX    TMP DP  RH WIND       PRES   REMARKS
VALENTINE      SNOW      28  25  88 N10       29.65F VSB 1/4 WCI  19
6HR MIN TEMP:  28; 6HR MAX TEMP:  30; 6HR PCP:  0.29;

AINSWORTH      SNOW      28  28 100 NE13      29.63F VSB 1/2 WCI  18
BROKEN BOW     LGT SNOW  31  30  96 E10       29.53F VSB 1   WCI  22
6HR MIN TEMP:  30; 6HR MAX TEMP:  31; 6HR PCP:  0.03;

O`NEILL        SNOW      30  29  97 NE16      29.62F VSB 1/4 WCI  19
ORD            LGT SNOW  32  29  88 E17       29.55F FOG     WCI  21
6HR MIN TEMP:  30; 6HR MAX TEMP:  32; 6HR PCP:  0.03;

THEDFORD       LGT SNOW  30  29  98 NE12      29.57F VSB 3/4 WCI  20
$$

NEZ041-046>049-061>064-073>077-083>087-241900-
SOUTH CENTRAL NEBRASKA

CITY           SKY/WX    TMP DP  RH WIND       PRES   REMARKS
GRAND ISLAND   CLOUDY    31  30  96 E20G26    29.53F WCI  19
6HR MIN TEMP:  30; 6HR MAX TEMP:  31;

AURORA         CLOUDY    31  31  99 E16       29.54F WCI  20
HASTINGS       CLOUDY    31  29  92 E12       29.52F FOG     WCI  22
6HR MIN TEMP:  31; 6HR MAX TEMP:  32;

HEBRON         CLOUDY    34  32  91 E13       29.51F WCI  25
HOLDREGE       LGT SNOW  32  30  94 E20       29.46F WCI  20
KEARNEY *      CLOUDY    30  28  93 E14       29.50F WCI  20
YORK           MOSUNNY   32  32 100 E18       29.55F WCI  20
$$

NEZ011>018-030>034-042>045-241900-
NORTHEAST NEBRASKA

CITY           SKY/WX    TMP DP  RH WIND       PRES   REMARKS
NORFOLK        CLOUDY    31  28  89 E17       29.60F FOG     WCI  19
6HR MIN TEMP:  29; 6HR MAX TEMP:  32; 6HR PCP:  0.13;

ALBION         CLOUDY    32  30  92 E17G23    29.59F FOG     WCI  21
BLAIR          CLOUDY    32  30  92 E20G25    29.62F FOG     WCI  20
FREMONT        CLOUDY    32  31  95 NE15G21   29.62F WCI  22
TEKAMAH        CLOUDY    33  28  81 E16       29.67F WCI  23
6HR MIN TEMP:  31; 6HR MAX TEMP:  33; 6HR PCP: TRACE;

WAYNE          CLOUDY    32  30  94 E21       29.66F WCI  19
$$

NEZ050>053-065>068-078-088>093-241900-
SOUTHEAST NEBRASKA

CITY           SKY/WX    TMP DP  RH WIND       PRES   REMARKS
LINCOLN        CLOUDY    33  29  85 E21G26    29.57F WCI  21
6HR MIN TEMP:  30; 6HR MAX TEMP:  33;

OMAHA EPPLEY   FLURRIES  33  27  78 E14       29.65F WCI  23
6HR MIN TEMP:  30; 6HR MAX TEMP:  34; 6HR PCP: TRACE;

BEATRICE       CLOUDY    35  32  90 E17G24    29.53F WCI  24
FALLS CITY     CLOUDY    35  31  85 E23       29.57F WCI  23
6HR MIN TEMP:  31; 6HR MAX TEMP:  35; 6HR PCP: TRACE;

NEBRASKA CITY  CLOUDY    33  29  85 E15G24    29.59F WCI  23
PLATTSMOUTH    CLOUDY    33  28  82 E15       29.61F WCI  23
$$

NEZ044-045-051>053-067-241900-
OMAHA AREA

CITY           SKY/WX    TMP DP  RH WIND       PRES   REMARKS
OMAHA EPPLEY   FLURRIES  33  27  78 E14       29.65F WCI  23
6HR MIN TEMP:  30; 6HR MAX TEMP:  34; 6HR PCP: TRACE;

BLAIR          CLOUDY    32  30  92 E20G25    29.62F FOG     WCI  20
FREMONT        CLOUDY    32  31  95 NE15G21   29.62F WCI  22
MILLARD        CLOUDY    36  31  82 E14G20    29.62F WCI  27
PLATTSMOUTH    CLOUDY    33  28  82 E15       29.61F WCI  23
WAHOO          CLOUDY    32  30  92 NE14      29.60F WCI  22
$$




USA.gov is the U.S. government's official web portal to all federal, state and local government web resources and services.